SCP
0 0 0 0 0 0 1 1 1 1 1 1 1 1 2 2 1 1 1 1 1 1 0 0 0 1 1 1 1 1 1 1 1 1 1 1 1 1
0 0 0 0 0 0 1 1 1 1 1 1 1 1 1 1 1 1 1 1 1 1 0 0 0 0 0 0 1 1 1 1 1 1 1 1 1 1
0 0 0 0 0 0 0 1 1 1 1 1 1 1 1 1 1 1 1 1 1 1 0 0 0 0 0 0 0 0 0 0 0 1 1 1 1 1
0 0 0 0 0 0 0 0 1 1 1 1 1 1 1 1 1 1 1 1 1 1 0 0 0 0 0 0 0 0 0 0 0 0 0 1 1 1
0 0 0 0 0 0 1 1 0 0 0 1 1 1 1 1 1 1 1 1 1 1 0 0 0 0 0 0 0 0 0 0 0 0 0 0 1 1
0 0 0 0 0 0 0 0 0 0 0 0 1 1 1 1 1 1 1 1 1 1 1 0 0 0 0 0 0 0 0 0 0 0 0 0 0 0
0 0 0 0 0 0 0 0 0 0 0 0 0 0 1 1 1 1 1 1 1 1 1 1 1 1 0 0 0 0 0 0 0 0 0 0 0 0
0 0 0 0 0 0 0 0 0 0 0 0 0 0 0 0 0 1 1 1 1 1 1 1 1 1 1 0 0 0 0 0 0 0 0 0 0 0
0 0 0 0 0 0 0 0 0 0 0 0 0 0 0 0 0 0 0 1 1 1 1 1 1 1 1 0 0 0 0 0 0 0 0 0 0 0
0 0 0 0 0 0 0 0 0 0 0 0 0 0 0 0 0 0 0 0 1 1 1 1 1 1 0 0 0 0 0 0 0 0 0 0 0 0
0 0 0 0 0 0 0 0 0 0 0 0 0 0 0 0 0 0 0 0 0 0 1 1 0 0 0 0 0 0 0 0 0 0 0 0 0 0
0 0 0 0 0 0 0 0 0 0 0 0 0 0 0 0 0 0 1 0 0 0 0 0 0 0 0 0 0 0 0 0 0 0 0 0 0 0
0 0 0 0 0 0 0 0 0 0 0 0 0 0 0 0 0 0 1 1 0 0 0 0 0 0 0 0 0 0 0 0 0 0 0 0 0 0
0 0 0 0 0 0 0 0 0 0 0 0 0 0 0 0 0 1 1 1 0 0 0 0 0 0 0 0 0 0 0 0 0 0 0 0 0 0
0 0 0 0 0 0 0 0 0 0 0 0 0 0 0 0 0 1 1 1 0 0 0 0 0 0 0 0 0 0 0 0 0 0 0 0 0 0
0 0 0 0 0 0 0 0 0 0 0 0 0 0 0 0 0 1 1 1 0 0 0 0 0 0 0 0 0 0 0 0 0 0 0 0 0 0
0 0 0 0 0 0 0 0 0 0 0 0 0 0 0 0 0 0 1 0 0 0 0 0 0 0 0 0 0 0 0 0 0 0 0 0 0 0
0 0 0 0 0 0 0 0 0 0 0 0 0 0 0 0 0 0 0 0 0 0 0 0 0 0 0 0 0 0 0 0 0 0 0 0 0 0
0 0 0 0 0 0 0 0 0 0 0 0 0 0 0 0 0 0 0 0 0 0 0 0 0 0 0 0 0 0 0 0 0 0 0 0 0 0
0 0 0 0 0 0 1 0 0 0 0 0 0 0 0 0 0 0 0 0 0 0 0 0 0 0 0 0 0 0 0 0 0 0 0 0 0 0
0 0 0 0 1 1 1 1 1 0 0 0 0 0 0 0 0 0 0 0 0 0 0 0 0 0 0 0 0 0 0 0 0 0 0 0 0 0
0 0 0 1 1 1 1 1 0 0 0 0 0 0 0 0 0 0 0 0 0 0 0 0 0 0 0 0 0 0 0 0 0 0 0 0 0 0
1 1 1 1 1 1 1 0 0 0 0 0 0 0 0 0 0 0 0 0 0 0 0 0 0 0 0 0 0 0 0 0 0 0 0 0 0 0
Wind_Speed
2 2 2 1 2 2 2 3 3 2 2 2 1 1 1 0 1 2 2 5 4 4 5 5 5 5 5 5 6 6 5 5 5 6 7 7 7 8
2 3 2 2 1 2 2 3 3 3 1 1 1 1 1 1 2 1 1 5 5 5 5 6 6 6 5 5 5 5 5 4 4 4 5 6 6 7
2 2 2 2 2 2 2 2 3 3 2 1 1 1 2 2 2 1 2 3 4 5 4 4 5 5 6 5 6 6 5 5 4 4 4 5 6 6
2 2 2 2 2 2 2 3 2 3 3 2 2 1 1 2 1 1 1 1 2 5 5 4 4 4 5 5 5 6 6 5 5 4 4 5 5 6
2 2 2 2 3 2 3 3 2 2 2 3 2 1 1 1 2 2 2 1 1 4 5 5 5 4 4 4 4 5 5 5 5 4 4 4 4 5
2 2 2 2 3 3 3 3 3 2 3 3 2 2 1 1 2 2 2 2 1 2 2 3 4 4 4 4 5 5 5 5 5 4 4 4 3 4
2 2 1 1 3 3 3 2 3 3 3 3 2 2 2 2 2 2 2 2 2 1 1 2 2 2 3 5 5 4 4 4 4 4 4 4 3 3
2 2 2 2 2 3 1 2 3 3 3 3 2 2 2 1 1 2 2 2 2 2 1 1 1 1 1 1 3 3 3 3 3 3 3 3 3 3
3 3 2 1 3 3 5 6 3 3 4 4 3 2 2 1 2 2 2 1 0 1 1 2 2 1 1 3 5 4 3 2 2 2 2 2 2 3
4 4 3 3 2 3 3 3 2 2 3 4 3 2 1 1 2 2 2 2 1 1 2 2 2 1 2 2 6 4 3 2 2 1 1 1 1 2
4 4 4 3 1 2 4 3 3 3 3 1 2 2 4 3 1 2 3 3 3 2 2 2 2 1 2 2 4 6 4 3 2 1 1 0 2 4
4 4 3 3 2 3 5 4 4 3 3 5 4 4 4 3 3 3 3 3 2 2 2 2 2 2 2 2 2 3 3 4 4 3 2 1 2 3
4 4 3 5 4 5 6 4 2 3 3 3 3 3 3 2 3 2 2 2 2 1 2 2 2 2 2 1 2 1 1 0 1 2 3 2 1 2
5 5 3 6 6 5 5 2 2 4 3 3 3 3 3 2 2 2 2 1 0 0 1 2 2 2 2 2 2 1 1 0 1 1 0 2 3 3
5 3 3 6 7 6 6 5 6 5 4 4 4 3 2 2 3 3 3 3 2 1 0 1 1 2 3 3 2 2 1 1 1 1 1 1 1 1
6 5 7 6 6 4 6 6 5 4 4 4 4 3 3 3 3 3 3 4 3 2 1 0 1 2 2 2 2 2 1 1 1 1 1 1 1 1
6 6 6 7 7 7 6 5 5 5 5 5 4 4 4 4 3 3 3 3 3 3 3 2 1 1 0 1 2 2 1 1 1 1 2 2 2 1
8 8 8 8 8 7 7 7 6 6 5 5 5 5 5 5 4 4 3 3 3 3 3 2 2 2 2 1 2 2 2 1 1 2 3 3 3 2
9 9 9 8 8 8 7 7 7 6 6 6 6 5 5 5 5 4 4 4 4 3 3 3 3 3 4 3 3 0 2 1 2 2 3 3 4 3
9 9 9 8 8 8 8 7 7 6 6 6 6 6 5 5 5 5 5 5 4 4 3 3 3 3 3 3 1 1 1 3 2 3 3 3 3 2
9 9 8 8 7 7 7 7 7 7 7 7 6 6 6 6 6 5 5 5 5 4 4 3 2 2 2 1 2 2 1 1 2 3 4 4 4 4
9 8 8 8 7 7 7 7 7 7 8 7 7 6 6 6 6 6 5 5 5 4 4 2 3 3 3 4 3 2 2 2 3 3 3 4 4 4
8 8 8 8 8 7 7 8 9 8 7 7 7 7 6 6 5 5 6 5 5 5 4 4 3 3 3 3 3 3 3 3 2 2 2 4 5 6
Wind_Direction
272 253 255 259 255 251 244 251 263 250 199 159 171 165 196 203 160 223 182 141 166 183 185 182 185 188 191 189 190 196 203 213 221 217 213 216 219 220
275 271 259 253 246 242 242 246 255 264 263 149 163 171 185 214 167 234 154 154 176 178 184 182 187 190 189 188 187 188 190 198 208 213 211 210 215 221
247 247 247 260 245 229 235 242 245 246 240 216 175 164 191 205 166 179 164 181 159 160 178 186 186 191 190 189 189 190 191 195 201 208 213 212 215 221
276 260 245 222 241 249 245 239 235 240 237 226 194 174 203 203 186 181 171 169 169 148 164 172 173 174 177 184 188 192 196 197 198 203 211 216 220 222
285 283 275 250 234 234 240 241 233 226 227 230 214 162 207 195 187 184 163 146 168 152 161 165 165 170 180 187 190 192 196 200 203 203 209 215 225 236
284 284 283 274 262 250 235 233 223 219 221 224 217 202 204 209 209 193 173 158 152 139 129 145 152 169 181 184 186 187 192 197 200 202 204 211 222 236
264 272 290 336 355 319 289 251 219 217 217 219 214 212 207 201 205 208 189 174 145 146 151 154 160 175 176 181 181 174 183 190 192 194 198 206 217 229
254 253 222 193 200 215 275 307 295 244 225 221 224 221 224 202 186 198 197 202 172 153 180 146 151 161 160 143 107 136 163 174 182 188 195 207 218 225
257 249 241 217 226 213 189 196 210 257 279 269 239 234 225 202 199 207 201 217 174 136 196 178 170 169 136 97 110 119 128 137 149 174 195 206 217 227
248 250 243 231 223 259 222 199 191 186 215 235 246 261 272 195 206 230 210 186 158 162 212 208 183 176 144 124 120 120 114 112 118 136 159 190 220 239
242 246 254 238 138 257 235 211 202 184 142 110 22 42 59 48 315 208 205 207 198 177 195 220 186 183 183 168 139 143 137 123 109 91 66 338 277 256
229 224 215 253 180 219 234 222 221 214 205 182 186 190 192 167 213 236 227 227 217 182 161 210 204 205 202 176 164 167 164 150 145 124 90 39 332 277
229 224 201 181 204 212 243 242 238 253 221 211 199 187 187 185 185 205 228 248 239 204 142 208 223 234 244 204 196 196 200 197 188 157 149 126 26 305
234 228 195 168 189 204 216 204 207 231 225 210 206 199 193 186 182 176 169 165 66 68 128 233 240 241 248 247 228 194 201 256 296 299 319 161 178 171
233 213 184 174 189 196 198 206 212 216 215 213 209 205 202 197 181 169 163 151 140 121 133 214 241 240 248 253 252 239 243 237 299 304 316 311 301 290
218 192 187 194 211 215 198 202 214 218 219 214 212 202 189 189 192 188 183 180 175 159 128 133 224 235 244 254 256 254 253 256 269 309 313 303 301 301
207 209 210 205 207 209 209 204 204 203 207 211 207 201 195 194 195 195 200 203 204 191 173 157 119 95 348 282 236 236 240 256 284 303 286 284 283 287
207 216 216 214 212 209 208 204 203 203 204 206 209 207 203 200 194 189 196 205 205 196 187 174 174 182 188 128 355 263 243 253 268 272 272 273 274 273
215 221 220 218 213 210 209 208 204 201 201 204 205 206 206 201 198 197 196 201 203 197 189 188 204 223 230 221 154 328 276 262 263 262 270 278 280 291
224 223 221 218 215 211 208 207 203 199 201 203 203 202 204 203 202 201 200 202 200 197 194 196 209 232 254 268 234 168 239 272 267 271 278 281 282 273
219 220 218 215 212 210 208 206 203 201 201 200 202 201 202 204 204 204 199 189 205 200 202 199 172 215 234 222 221 211 174 167 296 290 291 281 275 264
220 217 212 213 210 207 203 201 201 201 200 202 200 200 202 205 204 202 200 195 200 201 201 176 166 194 212 227 235 232 226 196 176 197 253 286 293 291
221 218 212 208 207 204 201 202 202 201 199 199 198 197 199 201 202 200 197 196 193 190 186 183 188 199 215 221 231 239 239 245 253 251 236 195 221 248